LEMUR-2-YNDRD (44404 NORAD) Tracking and Keplerian Element Data

This shows tracking and keplerian element data for the satellite.

Feedback or suggestion? Click here.




ElementValue
Catalog44404
NameLEMUR-2-YNDRD
Epoch Orbit429
Epoch Day214.89320424
Epoch Year2019
RAAN176.2925
Inclination97.4917
Eccentricity0.0023371
Argument of Perigee149.2508
Mean Anonmoly211.0097
Mean Motion15.11829012
Decay Rate4.81E-06
L11 44404U 19038U 19214.89320424 .00000481 00000-0 31736-4 0 9993
L22 44404 97.4917 176.2925 0023371 149.2508 211.0097 15.11829012 4297

Live tracking and technical data element details for LEMUR-2-YNDRD (NORAD 44404). LEMUR-2-YNDRD can be tracked NOW for your location showing map with azimuth and elevation plus other details from your city location.

Track the satellite on the map from your city or location and see movement details for azimuth, elevation, latitude, longitude, range, height, and movement on the map or in text.







IsCatalogInMostPopularTable: catalog: 44404, numindb: 10
Update: records affected: 1



GetName: 44404 LEMUR-2-YNDRD

Hit Count: updated at: Wed, 23 Oct 2019 00:58:58 GMT